TimeCET,TemperatureF,Dew PointF,Humidity,Sea Level PressureIn,VisibilityMPH,Wind Direction,Wind SpeedMPH,Gust SpeedMPH,PrecipitationIn,Events,Conditions,WindDirDegrees,DateUTC
1:00 AM,47,38,63,30.07,19,West,10.4,,,,,280,2013-02-21 00:00:00
6:00 AM,39.2,39.2,100,30.01,-9999.0,Calm,Calm,-,N/A,,Clear,0,2013-02-21 05:00:00
6:30 AM,39.2,39.2,100,30.01,-9999.0,WSW,3.5,-,N/A,,Clear,240,2013-02-21 05:30:00
7:00 AM,41.0,39.2,93,30.01,6.2,Variable,1.2,-,N/A,,Scattered Clouds,0,2013-02-21 06:00:00
7:30 AM,41.0,41.0,100,30.04,6.2,Calm,Calm,-,N/A,,Mostly Cloudy,0,2013-02-21 06:30:00
8:00 AM,41.0,39.2,93,30.04,6.2,Variable,2.3,-,N/A,,Mostly Cloudy,0,2013-02-21 07:00:00
8:30 AM,41.0,41.0,100,30.04,6.2,Calm,Calm,-,N/A,,Mostly Cloudy,0,2013-02-21 07:30:00
9:00 AM,41.0,41.0,100,30.04,6.2,Calm,Calm,-,N/A,,Mostly Cloudy,0,2013-02-21 08:00:00
9:30 AM,42.8,42.8,100,30.04,6.2,Calm,Calm,-,N/A,,Mostly Cloudy,0,2013-02-21 08:30:00
10:00 AM,44.6,42.8,93,30.04,6.2,Variable,1.2,-,N/A,,Mostly Cloudy,0,2013-02-21 09:00:00
10:30 AM,46.4,42.8,87,30.04,6.2,Calm,Calm,-,N/A,,Mostly Cloudy,0,2013-02-21 09:30:00
11:00 AM,48.2,44.6,87,30.04,6.2,Variable,2.3,-,N/A,,Mostly Cloudy,0,2013-02-21 10:00:00
11:30 AM,50.0,44.6,82,30.04,6.2,Calm,Calm,-,N/A,,Mostly Cloudy,0,2013-02-21 10:30:00
12:00 PM,51.8,42.8,71,30.04,6.2,Variable,1.2,-,N/A,,Mostly Cloudy,0,2013-02-21 11:00:00
12:30 PM,51.8,42.8,71,30.04,6.2,Calm,Calm,-,N/A,,Mostly Cloudy,0,2013-02-21 11:30:00
1:00 PM,52,40,53,30.03,19,Calm,Calm,,,,Overcast,,2013-02-21 12:00:00
1:00 PM,51.8,42.8,71,30.04,6.2,Calm,Calm,-,N/A,,Mostly Cloudy,0,2013-02-21 12:00:00
1:30 PM,51.8,42.8,71,30.01,6.2,Variable,1.2,-,N/A,,Mostly Cloudy,0,2013-02-21 12:30:00
2:00 PM,51.8,44.6,76,30.01,4.3,Variable,1.2,-,N/A,Rain,Light Rain,0,2013-02-21 13:00:00
3:00 PM,51.8,44.6,76,29.98,6.2,Variable,1.2,-,N/A,,Mostly Cloudy,0,2013-02-21 14:00:00
3:30 PM,51.8,44.6,76,29.98,6.2,Variable,2.3,-,N/A,,Mostly Cloudy,0,2013-02-21 14:30:00
4:00 PM,51.8,46.4,82,29.98,6.2,Calm,Calm,-,N/A,,Mostly Cloudy,0,2013-02-21 15:00:00
4:30 PM,51.8,46.4,82,29.95,6.2,Variable,2.3,-,N/A,,Mostly Cloudy,0,2013-02-21 15:30:00
5:00 PM,51.8,46.4,82,29.95,6.2,Calm,Calm,-,N/A,,Mostly Cloudy,0,2013-02-21 16:00:00
5:30 PM,51.8,46.4,82,29.95,5.0,Calm,Calm,-,N/A,Rain,Light Rain,0,2013-02-21 16:30:00
6:00 PM,51.8,48.2,88,29.95,5.0,Variable,1.2,-,N/A,Rain,Light Rain,0,2013-02-21 17:00:00
6:30 PM,51.8,48.2,88,29.95,5.0,Calm,Calm,-,N/A,Rain,Light Rain,0,2013-02-21 17:30:00
7:00 PM,51,47,80,29.96,12,ENE,2.3,,,,Overcast,70,2013-02-21 18:00:00
7:00 PM,51.8,48.2,88,29.95,6.2,Variable,1.2,-,N/A,,Mostly Cloudy,0,2013-02-21 18:00:00
7:30 PM,51.8,48.2,88,29.95,6.2,East,3.5,-,N/A,,Mostly Cloudy,90,2013-02-21 18:30:00
8:00 PM,51.8,50.0,94,29.92,6.2,Variable,2.3,-,N/A,,Mostly Cloudy,0,2013-02-21 19:00:00
8:30 PM,51.8,50.0,94,29.92,6.2,Variable,1.2,-,N/A,,Mostly Cloudy,0,2013-02-21 19:30:00
9:00 PM,51.8,50.0,94,29.92,6.2,Variable,1.2,-,N/A,,Light Drizzle,0,2013-02-21 20:00:00
9:30 PM,50.0,50.0,100,29.92,6.2,Variable,1.2,-,N/A,,Mostly Cloudy,0,2013-02-21 20:30:00
10:00 PM,50.0,48.2,94,29.92,6.2,Calm,Calm,-,N/A,,Mostly Cloudy,0,2013-02-21 21:00:00
10:30 PM,51.8,50.0,94,29.92,6.2,Calm,Calm,-,N/A,,Mostly Cloudy,0,2013-02-21 21:30:00
11:00 PM,50.0,50.0,100,29.92,5.0,Variable,1.2,-,N/A,Rain,Light Rain,0,2013-02-21 22:00:00